Location: Starry Hill Observatory
(46.8582°N, 122.3590°W)
Time: 20:32:02
(UTC-07:00)

ISS - Visible Passes

Search period start: 28 April 2017 00:00
Search period end: 08 May 2017 00:00
Orbit: 401 x 409 km, 51.6° (Epoch: 29 April)

Date Brightness Start Highest point End Pass type
(mag) Time Alt. Az. Time Alt. Az. Time Alt. Az.
04 May -1.0 05:11:10 10° SSE 05:11:57 11° SE 05:12:44 10° ESE visible
06 May -1.9 05:01:18 10° SSW 05:03:55 22° SE 05:06:33 10° E visible
07 May -1.3 04:10:23 10° SSE 04:12:01 13° SE 04:13:40 10° ESE visible
